Tracking 19281 objects as of 16-Nov-2018
HD Live streaming from Space Station
objects crossing your sky now

FLOCK 3P 47

Track FLOCK 3P 47 now!
10-day predictions
FLOCK 3P 47 is classified as:


NORAD ID: 42032
Int'l Code: 2017-008CN
Perigee: 493.1 km
Apogee: 503.6 km
Inclination: 97.4 °
Period: 94.4 minutes
Semi major axis: 6869 km
RCS: Unknown
Launch date: February 15, 2017
Source: United States (US)
Launch site: SRIHARIKOTA (SRI)
aabbcc
Your satellite tracking list
Your tracking list is empty




NASA's NSSDC Master Catalog

Two Line Element Set (TLE):
1 42032U 17008CN  18319.91838935  .00001321  00000-0  56038-4 0  9998
2 42032  97.4341  23.8917 0007637 186.6620 173.4517 15.24855756 97050
Source of the keplerian elements: AFSPC